When you browse on this site, cookies collect data to enhance your experience and personalize the content and advertising you see.
Visit our Privacy Policy to learn more. By continuing to use the site, you agree to this use of cookies and data.
  • In Hungary
  • List of Countries
  • For 7 days
  • Water Temperature
  • Weather Map
  • News
  • Weather Widgets
  • user-avatar
    Login

    Hourly Weather Damascus

    Today, 13 November, Wednesday

    Time Temperature Precipitation Wind Pressure Humidity
    00:00 +16°C° 0 mm 3 mps 699 mmHg 35%
    01:00 +16°C° 0 mm 3 mps 699 mmHg 36%
    02:00 +16°C° 0 mm 3 mps 698 mmHg 38%
    03:00 +16°C° 0 mm 3 mps 698 mmHg 42%
    04:00 +14°C° 0 mm 3 mps 698 mmHg 45%
    05:00 +14°C° 0 mm 3 mps 698 mmHg 48%
    06:00 +16°C° 0 mm 3 mps 699 mmHg 48%
    07:00 +17°C° 0 mm 3 mps 699 mmHg 48%
    08:00 +18°C° 0 mm 3 mps 699 mmHg 48%
    09:00 +19°C° 0 mm 3 mps 699 mmHg 49%
    10:00 +20°C° 0 mm 3 mps 699 mmHg 50%
    11:00 +21°C° 0 mm 3 mps 699 mmHg 52%
    12:00 +21°C° 0 mm 4 mps 699 mmHg 51%
    13:00 +22°C° 0 mm 4 mps 698 mmHg 50%
    14:00 +22°C° 0 mm 4 mps 698 mmHg 50%
    15:00 +22°C° 0 mm 3 mps 698 mmHg 53%
    16:00 +21°C° 0 mm 3 mps 698 mmHg 56%
    17:00 +20°C° 0 mm 3 mps 698 mmHg 59%
    18:00 +20°C° 0 mm 3 mps 698 mmHg 61%
    19:00 +20°C° 0 mm 3 mps 698 mmHg 62%
    20:00 +19°C° 0 mm 3 mps 698 mmHg 63%
    21:00 +19°C° 0 mm 2 mps 698 mmHg 64%
    22:00 +19°C° 0 mm 2 mps 698 mmHg 65%
    23:00 +18°C° 0 mm 2 mps 698 mmHg 65%

    Tomorrow, 14 November, Thursday

    Time Temperature Precipitation Wind Pressure Humidity
    00:00 +18°C° 0 mm 2 mps 697 mmHg 66%
    01:00 +18°C° 0 mm 2 mps 697 mmHg 67%
    02:00 +18°C° 0 mm 2 mps 697 mmHg 67%
    03:00 +17°C° 0 mm 2 mps 697 mmHg 69%
    04:00 +17°C° 0 mm 2 mps 697 mmHg 71%
    05:00 +16°C° 0 mm 1 mps 697 mmHg 72%
    06:00 +18°C° 0 mm 1 mps 697 mmHg 68%
    07:00 +18°C° 0 mm 2 mps 698 mmHg 65%
    08:00 +19°C° 0 mm 2 mps 698 mmHg 61%
    09:00 +20°C° 0.1 mm 2 mps 698 mmHg 58%
    10:00 +23°C° 0.1 mm 2 mps 698 mmHg 54%
    11:00 +24°C° 0.1 mm 3 mps 698 mmHg 51%
    12:00 +24°C° 0.4 mm 2 mps 698 mmHg 49%
    13:00 +24°C° 0.4 mm 2 mps 698 mmHg 47%
    14:00 +25°C° 0.4 mm 1 mps 697 mmHg 45%
    15:00 +24°C° 0.6 mm 1 mps 697 mmHg 50%
    16:00 +23°C° 0.6 mm 1 mps 697 mmHg 54%
    17:00 +22°C° 0.6 mm 1 mps 697 mmHg 59%
    18:00 +20°C° 0.9 mm 2 mps 697 mmHg 62%
    19:00 +20°C° 0.9 mm 2 mps 698 mmHg 64%
    20:00 +19°C° 0.9 mm 2 mps 698 mmHg 67%
    21:00 +19°C° 0.5 mm 2 mps 698 mmHg 67%
    22:00 +19°C° 0.5 mm 2 mps 698 mmHg 67%
    23:00 +18°C° 0.5 mm 2 mps 698 mmHg 68%

    Day after tomorrow, 15 November, Friday

    Time Temperature Precipitation Wind Pressure Humidity
    00:00 +19°C° 0 mm 1 mps 697 mmHg 67%
    01:00 +19°C° 0 mm 1 mps 697 mmHg 67%
    02:00 +19°C° 0 mm 1 mps 697 mmHg 67%
    03:00 +18°C° 0 mm 1 mps 697 mmHg 68%
    04:00 +18°C° 0 mm 1 mps 697 mmHg 69%
    05:00 +16°C° 0 mm 1 mps 697 mmHg 70%
    06:00 +17°C° 0 mm 2 mps 697 mmHg 68%
    07:00 +18°C° 0 mm 2 mps 698 mmHg 66%
    08:00 +18°C° 0 mm 2 mps 698 mmHg 64%
    09:00 +19°C° 0 mm 2 mps 698 mmHg 60%
    10:00 +21°C° 0 mm 2 mps 698 mmHg 56%
    11:00 +23°C° 0 mm 2 mps 698 mmHg 52%
    12:00 +24°C° 0.1 mm 2 mps 698 mmHg 45%
    13:00 +24°C° 0.1 mm 2 mps 698 mmHg 43%
    14:00 +25°C° 0.1 mm 2 mps 698 mmHg 41%
    15:00 +24°C° 0.2 mm 2 mps 697 mmHg 45%
    16:00 +23°C° 0.2 mm 2 mps 697 mmHg 49%
    17:00 +21°C° 0.2 mm 2 mps 697 mmHg 53%
    18:00 +21°C° 0.5 mm 2 mps 697 mmHg 57%
    19:00 +20°C° 0.5 mm 2 mps 697 mmHg 61%
    20:00 +19°C° 0.5 mm 3 mps 697 mmHg 65%
    21:00 +18°C° 0.5 mm 2 mps 697 mmHg 67%
    22:00 +18°C° 0.5 mm 2 mps 697 mmHg 68%
    23:00 +18°C° 0.5 mm 2 mps 697 mmHg 69%

    16 November, Saturday

    Time Temperature Precipitation Wind Pressure Humidity
    00:00 +17°C° 1.1 mm 2 mps 697 mmHg 72%
    01:00 +17°C° 1.1 mm 3 mps 696 mmHg 75%
    02:00 +16°C° 1.1 mm 3 mps 696 mmHg 78%
    03:00 +16°C° 1 mm 3 mps 696 mmHg 76%
    04:00 +16°C° 1 mm 2 mps 696 mmHg 74%
    05:00 +16°C° 1 mm 2 mps 696 mmHg 72%
    06:00 +16°C° 0.6 mm 1 mps 696 mmHg 70%
    07:00 +16°C° 0.6 mm 1 mps 696 mmHg 69%
    08:00 +18°C° 0.6 mm 1 mps 697 mmHg 67%
    09:00 +17°C° 0.4 mm 2 mps 697 mmHg 64%
    10:00 +18°C° 0.4 mm 2 mps 697 mmHg 61%
    11:00 +19°C° 0.4 mm 3 mps 697 mmHg 58%
    12:00 +18°C° 0.6 mm 4 mps 696 mmHg 60%
    13:00 +18°C° 0.6 mm 4 mps 696 mmHg 63%
    14:00 +17°C° 0.6 mm 5 mps 696 mmHg 65%
    15:00 +16°C° 0.6 mm 5 mps 696 mmHg 68%
    16:00 +16°C° 0.6 mm 5 mps 696 mmHg 70%
    17:00 +15°C° 0.6 mm 5 mps 696 mmHg 73%
    18:00 +15°C° 0.2 mm 4 mps 696 mmHg 75%
    19:00 +15°C° 0.2 mm 4 mps 696 mmHg 76%
    20:00 +14°C° 0.2 mm 3 mps 696 mmHg 78%
    21:00 +14°C° 0 mm 3 mps 696 mmHg 79%
    22:00 +14°C° 0 mm 3 mps 696 mmHg 80%
    23:00 +15°C° 0 mm 2 mps 696 mmHg 81%

    17 November, Sunday

    Time Temperature Precipitation Wind Pressure Humidity
    00:00 +14°C° 0 mm 2 mps 696 mmHg 80%
    01:00 +14°C° 0 mm 2 mps 696 mmHg 79%
    02:00 +14°C° 0 mm 2 mps 696 mmHg 78%
    03:00 +14°C° 0 mm 2 mps 696 mmHg 78%
    04:00 +14°C° 0 mm 2 mps 696 mmHg 78%
    05:00 +13°C° 0 mm 3 mps 696 mmHg 78%
    06:00 +13°C° 0 mm 3 mps 697 mmHg 75%
    07:00 +14°C° 0 mm 3 mps 697 mmHg 73%
    08:00 +14°C° 0 mm 4 mps 698 mmHg 71%
    09:00 +15°C° 0 mm 4 mps 698 mmHg 68%
    10:00 +17°C° 0 mm 4 mps 698 mmHg 64%
    11:00 +18°C° 0 mm 4 mps 698 mmHg 61%
    12:00 +18°C° 0 mm 3 mps 698 mmHg 59%
    13:00 +18°C° 0 mm 3 mps 698 mmHg 57%
    14:00 +19°C° 0 mm 3 mps 697 mmHg 55%
    15:00 +18°C° 0 mm 3 mps 697 mmHg 58%
    16:00 +18°C° 0 mm 2 mps 697 mmHg 61%
    17:00 +17°C° 0 mm 2 mps 697 mmHg 64%
    18:00 +17°C° 0 mm 2 mps 698 mmHg 66%
    19:00 +16°C° 0 mm 2 mps 698 mmHg 68%
    20:00 +16°C° 0 mm 2 mps 698 mmHg 71%
    21:00 +16°C° 0 mm 2 mps 698 mmHg 73%
    22:00 +15°C° 0 mm 2 mps 698 mmHg 74%
    23:00 +15°C° 0 mm 2 mps 698 mmHg 76%

    18 November, Monday

    Time Temperature Precipitation Wind Pressure Humidity
    00:00 +15°C° 0 mm 2 mps 698 mmHg 77%
    01:00 +14°C° 0 mm 1 mps 698 mmHg 78%
    02:00 +14°C° 0 mm 1 mps 697 mmHg 78%
    03:00 +14°C° 0 mm 1 mps 697 mmHg 79%
    04:00 +13°C° 0 mm 1 mps 697 mmHg 80%
    05:00 +13°C° 0 mm 1 mps 697 mmHg 80%
    06:00 +14°C° 0 mm 1 mps 698 mmHg 77%
    07:00 +14°C° 0 mm 1 mps 698 mmHg 74%
    08:00 +15°C° 0 mm 1 mps 699 mmHg 71%
    09:00 +16°C° 0 mm 1 mps 699 mmHg 67%
    10:00 +18°C° 0 mm 1 mps 699 mmHg 63%
    11:00 +18°C° 0 mm 1 mps 699 mmHg 58%
    12:00 +19°C° 0 mm 1 mps 699 mmHg 55%
    13:00 +19°C° 0 mm 1 mps 699 mmHg 52%
    14:00 +20°C° 0 mm 1 mps 698 mmHg 50%
    15:00 +19°C° 0 mm 1 mps 698 mmHg 53%
    16:00 +19°C° 0 mm 1 mps 698 mmHg 56%
    17:00 +19°C° 0 mm 1 mps 699 mmHg 59%
    18:00 +18°C° 0 mm 1 mps 699 mmHg 61%
    19:00 +18°C° 0 mm 1 mps 699 mmHg 63%
    20:00 +16°C° 0 mm 1 mps 699 mmHg 65%
    21:00 +16°C° 0 mm 1 mps 699 mmHg 67%
    22:00 +15°C° 0 mm 1 mps 699 mmHg 69%
    23:00 +15°C° 0 mm 1 mps 699 mmHg 71%
    Show more